Vertical_Velocity
-0 -1 -0 -2 -1 -1 0 -0 -1 -0 -1 -1 -3 -1 -4 -4 -3 -1 -2 -2 -1 -1 -2 -2 -2 -3 -3 -2 -1 -0 -0 0 -0 -0 0 1 -1 -1
-0 -2 -2 -2 -1 -2 -2 -0 -0 1 -1 0 -1 -0 -2 -2 -3 -2 -2 -1 -2 -1 -2 -2 -1 -2 -1 0 -1 -0 0 -1 -2 -1 0 1 -1 2
-2 1 2 -1 -2 -1 -1 0 -1 0 -1 -1 -2 -2 -3 -2 -3 -2 -3 -1 -2 -2 -2 -1 -2 -1 -0 -1 -1 -0 -2 -1 -2 -0 -2 -1 -4 -2
-3 -2 -2 -2 -1 0 1 1 -0 -0 -0 0 0 -1 -2 -2 -2 -2 -2 -1 -1 -1 -2 -2 -2 -2 1 2 1 -3 -4 -1 -2 -3 -5 4 -4 -1
1 1 1 2 1 -0 0 -1 -1 -1 -1 0 -2 -2 -2 -2 -3 -2 -1 -1 -1 -3 -2 -2 -2 -0 -0 2 1 -1 0 -2 3 -3 -3 -2 -4 -4
0 2 -0 2 -0 -0 -0 -0 -0 -0 1 0 -1 -2 -1 -2 -2 -1 -0 -3 -4 -1 1 -3 -1 0 -1 -3 -0 1 -3 -5 -4 -4 -6 -8 -3 -5
-1 1 -1 1 -1 0 0 -1 -1 0 0 -1 -3 -3 -4 -5 -3 -2 -2 -1 -1 -5 0 -2 -2 2 -2 -3 -2 -3 -2 -3 -4 -3 -3 -7 -4 -7
-1 0 -1 -1 -1 1 -3 -1 -0 -3 0 -1 -2 -3 -3 -3 -3 -1 -0 -1 3 -2 -5 -4 -2 -1 -6 -7 -7 -4 -5 -7 -8 -7 -8 -9 -6 -5
4 -2 -1 1 -2 0 -2 -3 -0 0 1 2 -3 -4 -4 -4 1 -1 -1 -0 -2 -2 -1 -2 -3 -1 -2 -5 -7 -5 -4 -4 -9 -8 -9 -6 -1 -3
0 -2 2 -1 -1 -2 0 -0 0 -1 -0 0 -2 -5 -2 -3 -0 1 1 0 -1 -1 3 4 -1 -7 -3 -7 -5 -4 -9 -1 -7 -3 -8 -7 2 -1
0 1 -1 2 2 1 -2 2 -1 1 1 2 0 -6 -4 -1 0 1 1 -0 -0 1 2 -1 6 18 -5 -3 -1 1 -3 -3 -5 -9 -13 -13 -8 -3
0 1 -2 4 -2 -0 1 1 -0 1 3 1 -2 -4 -4 1 1 -1 -0 -0 0 1 -4 -3 -3 -9 18 12 -4 1 6 2 3 0 -7 -9 -7 0
2 -3 2 -1 -1 2 -0 2 1 2 3 3 3 -5 0 1 -2 0 0 -1 -1 1 -2 -1 -7 -4 -4 -3 7 1 0 1 5 7 4 -7 -8 -7
0 4 -0 1 2 0 1 0 1 2 1 2 11 -1 -0 -1 -1 -1 1 -1 1 2 0 -0 2 -2 -2 0 -10 9 6 3 -5 -3 4 -6 -10 -2
2 2 0 1 -2 1 3 -1 0 -0 4 0 -0 -2 -2 1 0 -0 -0 3 1 1 1 2 2 -2 -10 -9 -2 -5 -6 9 -2 -4 3 -5 -12 -1
0 -1 -1 -2 1 2 4 3 3 3 -1 -2 2 -0 1 1 4 5 4 1 1 -1 1 -0 -3 -5 -0 -10 -8 3 -10 -21 -2 -5 1 7 -9 -7
4 4 -1 12 12 3 -2 3 2 2 3 1 4 4 4 6 3 -0 1 1 0 2 -1 -0 -0 -2 -9 -15 -3 -5 -9 -2 -2 -5 -2 3 -0 -2
2 2 -1 4 3 0 2 8 8 -1 -1 5 5 6 4 4 3 3 2 2 2 -1 -3 -4 -3 1 -4 1 -36 -7 3 -5 -4 1 1 -2 10 -1
0 6 2 3 0 7 3 -1 1 -0 2 2 -0 2 4 4 4 1 2 2 -2 -1 -1 -1 -1 -3 3 3 16 -22 -5 -5 -7 2 -3 -3 -1 -1
2 1 -2 10 0 4 2 -3 -2 -1 1 3 2 3 2 3 1 3 2 -1 -1 -2 -5 -5 -3 -3 -7 -8 -3 9 -12 -10 -13 -7 2 2 4 -5
-1 -1 -0 1 1 -2 -2 2 1 1 1 2 2 2 1 2 3 1 -1 0 -1 -2 -2 -6 -4 -9 -6 -2 -4 1 6 -1 -9 -23 -10 -3 -4 4
-1 -2 3 0 -0 2 4 1 -1 -0 0 0 0 -0 2 3 0 -1 -1 -2 -3 -2 -2 -3 -5 -3 -4 -6 -4 -7 0 8 6 4 -15 -18 -24 -9
6 13 0 -0 0 -1 -1 -1 -1 -0 -1 -1 0 3 1 -2 -1 -1 -1 -3 -1 -2 -2 -1 -2 -2 -6 -7 -8 -5 -1 0 -3 11 15 -1 -3 -8
Height
5800 5802 5803 5803 5805 5806 5806 5806 5806 5806 5805 5804 5802 5800 5796 5793 5790 5786 5782 5777 5773 5768 5764 5759 5754 5749 5744 5738 5731 5724 5717 5711 5706 5701 5696 5691 5685 5679
5793 5795 5797 5797 5798 5799 5799 5800 5799 5798 5797 5795 5793 5790 5787 5784 5780 5776 5771 5767 5762 5758 5753 5748 5743 5737 5732 5724 5717 5711 5705 5700 5696 5691 5684 5678 5672 5666
5785 5787 5788 5790 5791 5791 5791 5791 5790 5790 5788 5787 5785 5782 5778 5774 5770 5765 5760 5756 5752 5747 5741 5736 5731 5725 5719 5712 5706 5701 5696 5691 5685 5679 5672 5665 5658 5651
5776 5778 5780 5781 5782 5783 5783 5783 5782 5781 5780 5778 5775 5772 5768 5764 5759 5755 5750 5747 5741 5735 5730 5724 5719 5713 5707 5702 5697 5691 5686 5680 5672 5666 5659 5652 5643 5634
5769 5771 5772 5774 5775 5776 5776 5775 5774 5772 5771 5769 5766 5762 5758 5754 5750 5745 5740 5735 5730 5724 5718 5712 5707 5702 5697 5692 5687 5682 5675 5668 5661 5652 5644 5635 5626 5615
5762 5764 5766 5767 5768 5768 5768 5767 5765 5764 5762 5759 5756 5753 5749 5745 5740 5736 5731 5725 5719 5713 5708 5701 5697 5692 5687 5682 5675 5669 5661 5653 5645 5637 5627 5618 5607 5596
5756 5758 5759 5760 5760 5760 5759 5758 5757 5755 5752 5750 5747 5743 5739 5735 5730 5726 5720 5714 5708 5702 5697 5692 5687 5681 5675 5669 5663 5656 5648 5639 5630 5620 5610 5600 5588 5576
5748 5750 5751 5751 5752 5751 5751 5750 5748 5745 5743 5740 5736 5733 5729 5725 5720 5715 5709 5703 5699 5691 5686 5681 5676 5670 5664 5657 5651 5643 5634 5623 5613 5603 5594 5583 5570 5555
5739 5741 5742 5742 5742 5742 5742 5740 5738 5734 5731 5728 5726 5723 5718 5715 5709 5705 5699 5692 5687 5682 5677 5671 5665 5659 5652 5645 5637 5628 5617 5607 5598 5588 5578 5566 5551 5534
5731 5731 5733 5733 5732 5732 5730 5729 5726 5724 5721 5718 5716 5713 5708 5703 5699 5694 5689 5683 5678 5673 5669 5662 5653 5646 5639 5632 5623 5612 5603 5592 5582 5570 5558 5545 5531 5512
5721 5722 5723 5723 5722 5721 5720 5718 5716 5714 5711 5708 5706 5701 5697 5692 5687 5682 5678 5674 5669 5664 5658 5652 5647 5638 5627 5618 5610 5600 5588 5577 5564 5550 5535 5522 5509 5495
5712 5712 5713 5714 5712 5711 5710 5708 5706 5705 5702 5699 5695 5691 5686 5681 5677 5672 5668 5663 5658 5653 5647 5640 5634 5629 5624 5607 5596 5588 5576 5562 5548 5532 5515 5501 5490 5480
5701 5702 5703 5702 5702 5701 5700 5699 5697 5695 5692 5689 5686 5680 5675 5670 5666 5662 5657 5653 5648 5642 5635 5628 5620 5613 5606 5600 5586 5573 5560 5548 5535 5520 5500 5484 5474 5460
5691 5692 5692 5692 5692 5691 5690 5689 5687 5685 5682 5679 5676 5670 5665 5660 5656 5652 5647 5642 5637 5630 5623 5616 5608 5600 5594 5586 5573 5563 5547 5531 5516 5503 5488 5472 5460 5449
5681 5682 5681 5681 5682 5682 5681 5679 5677 5675 5672 5668 5664 5659 5655 5650 5646 5641 5636 5631 5625 5618 5611 5603 5596 5587 5578 5569 5559 5545 5535 5520 5499 5487 5474 5459 5448 5441
5670 5671 5672 5672 5673 5672 5671 5670 5667 5664 5660 5657 5652 5649 5644 5639 5634 5630 5625 5619 5613 5607 5600 5592 5583 5574 5564 5552 5542 5529 5512 5499 5491 5474 5465 5451 5437 5426
5660 5661 5663 5663 5663 5662 5661 5659 5656 5654 5650 5647 5643 5638 5633 5628 5623 5619 5614 5608 5602 5596 5589 5581 5572 5560 5547 5536 5526 5511 5498 5488 5476 5465 5457 5447 5430 5418
5651 5653 5654 5653 5654 5653 5651 5650 5647 5643 5641 5637 5633 5628 5623 5618 5613 5608 5603 5597 5592 5586 5578 5570 5561 5551 5536 5519 5502 5498 5484 5475 5467 5454 5444 5434 5426 5414
5644 5645 5645 5646 5645 5644 5641 5639 5636 5633 5630 5626 5622 5618 5612 5607 5602 5598 5593 5588 5582 5576 5568 5560 5550 5539 5529 5514 5499 5479 5476 5465 5457 5448 5436 5426 5414 5406
5634 5634 5635 5636 5635 5633 5630 5628 5626 5623 5619 5615 5611 5606 5601 5597 5593 5590 5584 5578 5572 5564 5556 5547 5536 5524 5513 5501 5490 5477 5458 5451 5443 5435 5427 5420 5408 5395
5625 5626 5627 5626 5624 5623 5621 5618 5615 5612 5608 5604 5600 5595 5592 5589 5585 5581 5576 5570 5562 5554 5544 5534 5522 5510 5500 5490 5480 5471 5457 5441 5428 5419 5412 5407 5401 5394
5617 5617 5616 5616 5614 5612 5610 5607 5605 5601 5597 5593 5590 5587 5584 5581 5576 5572 5566 5560 5553 5543 5533 5521 5510 5499 5489 5480 5471 5462 5454 5443 5430 5415 5400 5391 5384 5380
5608 5607 5606 5605 5604 5602 5600 5597 5593 5589 5586 5584 5582 5580 5576 5572 5568 5562 5556 5549 5541 5532 5522 5511 5500 5490 5480 5472 5463 5455 5445 5436 5426 5418 5405 5391 5382 5373